ROMMA est une association bénévole à but non lucratif. Votre soutien est indispensable : ADHERER à ROMMA ou FAIRE un DON

Chambon - (38, Isère)

Oisans (2460 m)   Longitude: 06° 10' 42" E   Latitude: 45° 01' 32" N Station partenaire n°803
 

Détail journalier du     <<     >>

Température Humidité Vent Dir Rafale Dir. rafale Neige 1 Neige 2
Heure (°C) (%) (km/h) (km/h) (cm) (cm)
01:00 -3.410010NE17NE191237
02:00 -3.51005NNE11NNE191237
03:00 -4.3994E10E191237
04:00 -4.31005N11E191237
05:00 -4.71002N7N191237
06:00 -5.21001N10NE191237
07:00 -4.8992NE10NE191237
08:00 -4.8993NNE15NE191237
09:00 -4.3998NE21NE191237
10:00 -3.89715NE25NE191237
11:00 -3.29615NNE27NNE191237
12:00 -2.3939N18N191237
13:00 -1.4936N12N191237
14:00 -0.7922ONO7NNO191237
15:00 -1.2882N12N191237
16:00 -1.3915N22O190237
17:00 -2.0937O21O190237
18:00 -2.7949N17N190236
19:00 -3.09610NNE20NNE190236
20:00 -3.69611NNE21NNE190236
21:00 -4.29612NNE20NNE190236
22:00 -4.9976N15NE190236
23:00 -5.3972N8N189236
minuit -5.6963N7N189236

Graphique du 12-04-2019

 

Serveur OMMA